Location: Camerons Lookout
(40.9833°S, 175.9333°E)
Time: 08:57:56
(UTC+00:00)

Cosmos 1733 Rocket - Pass Details

Date: 14 January 2026
Orbit: 596 x 621 km, 82.5° (Epoch: 19 February)

Event Time Altitude Azimuth Distance (km) Brightness Sun altitude
Rises 09:01:37 0° 339° (NNW) 2,842 6.2 -11.9°
Reaches altitude 10° 09:03:53 10° 333° (NNW) 1,945 5.5 -12.2°
Maximum altitude 09:08:02 46° 259° (WSW) 813 4.1 -12.7°
Drops below altitude 10° 09:12:14 10° 184° (S) 1,969 6.4 -13.3°
Sets 09:14:32 0° 178° (S) 2,880 7.2 -13.6°
